LAN893 SCCI-SCRM

Flight info

Callsign LAN893
Flight time 1h 49m
Altitude 29000
Route HORNO DCT DRAKE DCT KRILL PULAP1
Aircraft F28/M-SDFIRWY/H

Departure

Time 2026-04-28 18:55
Airport President Carlos Ibáñez International Airport (SCCI)

Arrival

Time 2026-04-28 20:45
Airport Teniente Rodolfo Marsh Martin Airport (SCRM)
Time Latitude Longitude Altitude Speed Heading
2026-04-28 18:24 -53.00460 -70.84450 112 ft 0 kts 179°
2026-04-28 18:45 -53.00451 -70.84450 110 ft 4 kts 179°
2026-04-28 18:45 -53.00424 -70.84451 111 ft 4 kts 179°
2026-04-28 18:45 -53.00401 -70.84452 112 ft 4 kts 189°
2026-04-28 18:46 -53.00382 -70.84436 111 ft 4 kts 254°
2026-04-28 18:46 -53.00380 -70.84394 113 ft 2 kts 269°
2026-04-28 18:46 -53.00380 -70.84390 113 ft 0 kts 268°
2026-04-28 18:48 -53.00381 -70.84448 113 ft 9 kts 269°
2026-04-28 18:48 -53.00382 -70.84558 113 ft 10 kts 269°
2026-04-28 18:48 -53.00356 -70.84652 113 ft 10 kts 328°
2026-04-28 18:49 -53.00297 -70.84712 113 ft 10 kts 327°
2026-04-28 18:49 -53.00263 -70.84765 112 ft 10 kts 297°
2026-04-28 18:49 -53.00254 -70.84929 114 ft 12 kts 268°
2026-04-28 18:49 -53.00257 -70.85070 113 ft 13 kts 268°
2026-04-28 18:50 -53.00259 -70.85227 113 ft 14 kts 269°
2026-04-28 18:50 -53.00261 -70.85391 113 ft 15 kts 268°
2026-04-28 18:50 -53.00264 -70.85562 113 ft 15 kts 268°
2026-04-28 18:50 -53.00266 -70.85741 113 ft 16 kts 269°
2026-04-28 18:51 -53.00267 -70.85925 112 ft 16 kts 269°
2026-04-28 18:51 -53.00265 -70.86114 111 ft 16 kts 285°
2026-04-28 18:51 -53.00194 -70.86237 114 ft 14 kts 319°
2026-04-28 18:51 -53.00122 -70.86341 114 ft 13 kts 319°
2026-04-28 18:52 -53.00057 -70.86434 114 ft 13 kts 319°
2026-04-28 18:52 -52.99975 -70.86553 113 ft 17 kts 319°
2026-04-28 18:52 -52.99875 -70.86699 109 ft 20 kts 316°
2026-04-28 18:52 -52.99795 -70.86850 106 ft 7 kts 316°
2026-04-28 18:53 -52.99774 -70.86855 106 ft 2 kts 60°
2026-04-28 18:53 -52.99775 -70.86843 107 ft 2 kts 124°
2026-04-28 18:53 -52.99779 -70.86837 106 ft 0 kts 138°
2026-04-28 18:54 -52.99786 -70.86827 106 ft 8 kts 138°
2026-04-28 18:54 -52.99945 -70.86596 113 ft 60 kts 139°
2026-04-28 18:54 -53.00434 -70.85884 108 ft 126 kts 138°
2026-04-28 18:54 -53.01237 -70.84732 189 ft 173 kts 140°
2026-04-28 18:55 -53.02254 -70.83287 624 ft 212 kts 141°
2026-04-28 18:55 -53.03041 -70.82200 1069 ft 231 kts 139°
2026-04-28 18:55 -53.04757 -70.79766 1804 ft 249 kts 139°
2026-04-28 18:55 -53.06159 -70.78030 2305 ft 255 kts 153°
2026-04-28 18:56 -53.07827 -70.76956 2822 ft 260 kts 161°
2026-04-28 18:56 -53.09540 -70.75979 3339 ft 266 kts 160°
2026-04-28 18:56 -53.11302 -70.74893 3890 ft 273 kts 158°
2026-04-28 18:56 -53.13074 -70.73663 4425 ft 280 kts 155°
2026-04-28 18:57 -53.14870 -70.72276 4977 ft 288 kts 153°
2026-04-28 18:57 -53.16687 -70.70753 5542 ft 295 kts 151°
2026-04-28 18:57 -53.18524 -70.69120 6072 ft 302 kts 150°
2026-04-28 18:57 -53.20364 -70.67433 6582 ft 299 kts 150°
2026-04-28 18:58 -53.22161 -70.65751 7088 ft 294 kts 150°
2026-04-28 18:58 -53.23919 -70.64077 7595 ft 287 kts 150°
2026-04-28 18:58 -53.25636 -70.62425 8116 ft 281 kts 150°
2026-04-28 18:58 -53.27301 -70.60812 8666 ft 274 kts 150°
2026-04-28 18:59 -53.28936 -70.59226 9201 ft 275 kts 151°
2026-04-28 18:59 -53.30598 -70.57632 9686 ft 277 kts 151°
2026-04-28 18:59 -53.32289 -70.56028 10081 ft 282 kts 151°
2026-04-28 18:59 -53.34008 -70.54389 10473 ft 288 kts 151°
2026-04-28 19:00 -53.35775 -70.52706 10873 ft 294 kts 152°
2026-04-28 19:00 -53.37569 -70.50990 11282 ft 301 kts 152°
2026-04-28 19:00 -53.39401 -70.49235 11699 ft 306 kts 151°
2026-04-28 19:00 -53.41269 -70.47438 12120 ft 312 kts 151°
2026-04-28 19:01 -53.43168 -70.45609 12548 ft 317 kts 152°
2026-04-28 19:01 -53.45092 -70.43767 12976 ft 322 kts 152°
2026-04-28 19:01 -53.47054 -70.41883 13404 ft 326 kts 152°
2026-04-28 19:01 -53.49047 -70.39985 13847 ft 330 kts 152°
2026-04-28 19:02 -53.51054 -70.38070 14272 ft 334 kts 152°
2026-04-28 19:02 -53.53078 -70.36116 14668 ft 338 kts 152°
2026-04-28 19:02 -53.55128 -70.34141 15065 ft 341 kts 152°
2026-04-28 19:02 -53.57200 -70.32160 15465 ft 344 kts 152°
2026-04-28 19:03 -53.59298 -70.30157 15874 ft 347 kts 152°
2026-04-28 19:03 -53.61399 -70.28144 16283 ft 349 kts 152°
2026-04-28 19:03 -53.63503 -70.26116 16709 ft 351 kts 153°
2026-04-28 19:03 -53.65619 -70.24038 17132 ft 352 kts 153°
2026-04-28 19:04 -53.67737 -70.21957 17556 ft 353 kts 153°
2026-04-28 19:04 -53.69836 -70.19905 17916 ft 354 kts 153°
2026-04-28 19:04 -53.71972 -70.17815 18298 ft 355 kts 153°
2026-04-28 19:04 -53.74138 -70.15691 18677 ft 355 kts 153°
2026-04-28 19:05 -53.76242 -70.13620 19054 ft 355 kts 154°
2026-04-28 19:05 -53.78376 -70.11546 19451 ft 354 kts 154°
2026-04-28 19:05 -53.80515 -70.09479 19860 ft 354 kts 154°
2026-04-28 19:05 -53.82654 -70.07402 20242 ft 353 kts 154°
2026-04-28 19:06 -53.84777 -70.05335 20650 ft 351 kts 154°
2026-04-28 19:06 -53.86182 -70.03963 20945 ft 350 kts 154°
2026-04-28 19:06 -53.89008 -70.01180 21410 ft 351 kts 154°
2026-04-28 19:06 -53.91117 -69.99091 21746 ft 352 kts 154°
2026-04-28 19:07 -53.93232 -69.96990 22101 ft 351 kts 155°
2026-04-28 19:07 -53.95351 -69.94912 22439 ft 351 kts 155°
2026-04-28 19:07 -53.97465 -69.92846 22765 ft 351 kts 155°
2026-04-28 19:07 -53.99586 -69.90773 23026 ft 352 kts 155°
2026-04-28 19:08 -54.01720 -69.88686 23267 ft 353 kts 155°
2026-04-28 19:08 -54.03840 -69.86580 23518 ft 353 kts 154°
2026-04-28 19:08 -54.05930 -69.84487 23766 ft 354 kts 154°
2026-04-28 19:08 -54.08047 -69.82362 24038 ft 354 kts 154°
2026-04-28 19:09 -54.10173 -69.80234 24308 ft 353 kts 154°
2026-04-28 19:09 -54.12295 -69.78115 24562 ft 353 kts 154°
2026-04-28 19:09 -54.14418 -69.75997 24768 ft 354 kts 154°
2026-04-28 19:09 -54.16559 -69.73865 24932 ft 357 kts 154°
2026-04-28 19:10 -54.18718 -69.71721 25116 ft 359 kts 154°
2026-04-28 19:10 -54.20886 -69.69572 25276 ft 362 kts 154°
2026-04-28 19:10 -54.23073 -69.67408 25421 ft 365 kts 154°
2026-04-28 19:10 -54.25280 -69.65213 25571 ft 368 kts 154°
2026-04-28 19:11 -54.27494 -69.62980 25724 ft 371 kts 153°
2026-04-28 19:11 -54.29723 -69.60720 25875 ft 374 kts 153°
2026-04-28 19:11 -54.31970 -69.58437 26024 ft 376 kts 153°
2026-04-28 19:11 -54.34226 -69.56146 26182 ft 379 kts 153°
2026-04-28 19:12 -54.36499 -69.53840 26341 ft 381 kts 153°
2026-04-28 19:12 -54.38760 -69.51548 26498 ft 383 kts 153°
2026-04-28 19:12 -54.41064 -69.49216 26663 ft 385 kts 153°
2026-04-28 19:12 -54.43383 -69.46868 26809 ft 387 kts 153°
2026-04-28 19:13 -54.45709 -69.44518 26964 ft 389 kts 153°
2026-04-28 19:13 -54.48059 -69.42144 27135 ft 391 kts 153°
2026-04-28 19:13 -54.50411 -69.39761 27293 ft 393 kts 153°
2026-04-28 19:13 -54.52773 -69.37380 27463 ft 395 kts 153°
2026-04-28 19:14 -54.55155 -69.34977 27610 ft 396 kts 153°
2026-04-28 19:14 -54.57534 -69.32563 27767 ft 398 kts 153°
2026-04-28 19:14 -54.59925 -69.30125 27928 ft 399 kts 153°
2026-04-28 19:14 -54.62285 -69.27679 28104 ft 401 kts 152°
2026-04-28 19:15 -54.64703 -69.25166 28254 ft 403 kts 153°
2026-04-28 19:15 -54.67130 -69.22676 28310 ft 407 kts 153°
2026-04-28 19:15 -54.71219 -69.18485 28317 ft 416 kts 152°
2026-04-28 19:16 -54.77068 -69.12391 28312 ft 428 kts 152°
2026-04-28 19:16 -54.82247 -69.07056 28291 ft 438 kts 153°
2026-04-28 19:17 -54.87535 -69.01562 28283 ft 447 kts 152°
2026-04-28 19:17 -54.92906 -68.95936 28277 ft 454 kts 152°
2026-04-28 19:18 -54.98345 -68.90246 28264 ft 456 kts 152°
2026-04-28 19:18 -55.03804 -68.84505 28286 ft 460 kts 153°
2026-04-28 19:19 -55.09312 -68.78746 28277 ft 462 kts 152°
2026-04-28 19:19 -55.14777 -68.72962 28258 ft 459 kts 152°
2026-04-28 19:20 -55.20194 -68.67189 28261 ft 454 kts 152°
2026-04-28 19:20 -55.25602 -68.61446 28251 ft 454 kts 153°
2026-04-28 19:21 -55.31040 -68.55729 28253 ft 457 kts 153°
2026-04-28 19:21 -55.36479 -68.49881 28252 ft 459 kts 152°
2026-04-28 19:22 -55.40089 -68.45985 28254 ft 460 kts 152°
2026-04-28 19:22 -55.47411 -68.38136 28256 ft 461 kts 153°
2026-04-28 19:23 -55.52883 -68.32283 28248 ft 461 kts 153°
2026-04-28 19:23 -55.58333 -68.26327 28246 ft 461 kts 152°
2026-04-28 19:24 -55.63802 -68.20400 28249 ft 460 kts 153°
2026-04-28 19:24 -55.69250 -68.14456 28287 ft 460 kts 152°
2026-04-28 19:25 -55.74708 -68.08445 28272 ft 462 kts 153°
2026-04-28 19:25 -55.80148 -68.02487 28265 ft 463 kts 153°
2026-04-28 19:26 -55.85641 -67.96470 28252 ft 463 kts 153°
2026-04-28 19:26 -55.91133 -67.90449 28244 ft 463 kts 153°
2026-04-28 19:27 -55.96607 -67.84366 28248 ft 464 kts 153°
2026-04-28 19:27 -56.02083 -67.78213 28237 ft 465 kts 153°
2026-04-28 19:28 -56.06640 -67.73114 28233 ft 464 kts 154°
2026-04-28 19:28 -56.12132 -67.67008 28229 ft 465 kts 153°
2026-04-28 19:29 -56.16679 -67.61885 28254 ft 465 kts 153°
2026-04-28 19:29 -56.23089 -67.54685 28230 ft 465 kts 154°
2026-04-28 19:30 -56.28578 -67.48540 28229 ft 465 kts 154°
2026-04-28 19:30 -56.33994 -67.42342 28226 ft 465 kts 153°
2026-04-28 19:31 -56.39478 -67.36107 28256 ft 464 kts 154°
2026-04-28 19:31 -56.44950 -67.29875 28231 ft 465 kts 154°
2026-04-28 19:32 -56.50401 -67.23549 28228 ft 466 kts 153°
2026-04-28 19:32 -56.55833 -67.17127 28227 ft 466 kts 153°
2026-04-28 19:33 -56.61271 -67.10672 28219 ft 466 kts 153°
2026-04-28 19:33 -56.66681 -67.04238 28220 ft 466 kts 153°
2026-04-28 19:34 -56.72117 -66.97767 28216 ft 466 kts 153°
2026-04-28 19:34 -56.77540 -66.91300 28215 ft 466 kts 153°
2026-04-28 19:35 -56.82946 -66.84753 28220 ft 466 kts 152°
2026-04-28 19:35 -56.88335 -66.78255 28235 ft 466 kts 153°
2026-04-28 19:36 -56.93753 -66.71732 28220 ft 466 kts 153°
2026-04-28 19:36 -56.99148 -66.65107 28212 ft 467 kts 152°
2026-04-28 19:37 -57.03652 -66.59629 28210 ft 466 kts 153°
2026-04-28 19:37 -57.09982 -66.51900 28207 ft 466 kts 152°
2026-04-28 19:38 -57.15361 -66.45215 28216 ft 466 kts 152°
2026-04-28 19:38 -57.20754 -66.38588 28207 ft 465 kts 152°
2026-04-28 19:39 -57.26104 -66.31968 28202 ft 465 kts 152°
2026-04-28 19:39 -57.31470 -66.25263 28198 ft 465 kts 152°
2026-04-28 19:40 -57.36837 -66.18580 28219 ft 464 kts 152°
2026-04-28 19:40 -57.42208 -66.11921 28205 ft 464 kts 152°
2026-04-28 19:41 -57.47560 -66.05169 28199 ft 464 kts 152°
2026-04-28 19:41 -57.52900 -65.98401 28190 ft 464 kts 152°
2026-04-28 19:42 -57.58242 -65.91674 28225 ft 463 kts 152°
2026-04-28 19:42 -57.62686 -65.86098 28201 ft 463 kts 152°
2026-04-28 19:43 -57.68875 -65.78198 28193 ft 463 kts 152°
2026-04-28 19:43 -57.74185 -65.71358 28187 ft 463 kts 152°
2026-04-28 19:44 -57.79503 -65.64585 28188 ft 462 kts 152°
2026-04-28 19:44 -57.84816 -65.57772 28197 ft 463 kts 152°
2026-04-28 19:45 -57.90119 -65.50919 28189 ft 463 kts 152°
2026-04-28 19:45 -57.95422 -65.43987 28184 ft 463 kts 152°
2026-04-28 19:46 -58.00732 -65.37119 28180 ft 462 kts 152°
2026-04-28 19:46 -58.06016 -65.30205 28219 ft 463 kts 152°
2026-04-28 19:47 -58.11306 -65.23235 28176 ft 463 kts 152°
2026-04-28 19:47 -58.16564 -65.16320 28177 ft 463 kts 152°
2026-04-28 19:48 -58.21853 -65.09381 28172 ft 463 kts 152°
2026-04-28 19:48 -58.27135 -65.02384 28173 ft 463 kts 152°
2026-04-28 19:49 -58.32425 -64.95381 28191 ft 463 kts 152°
2026-04-28 19:49 -58.37698 -64.88334 28183 ft 463 kts 150°
2026-04-28 19:50 -58.45590 -64.77739 28169 ft 462 kts 151°
2026-04-28 19:51 -58.50837 -64.70649 28171 ft 462 kts 150°
2026-04-28 19:51 -58.56079 -64.63528 28186 ft 461 kts 150°
2026-04-28 19:52 -58.61299 -64.56497 28179 ft 461 kts 150°
2026-04-28 19:52 -58.66514 -64.49326 28173 ft 460 kts 150°
2026-04-28 19:53 -58.71733 -64.42221 28172 ft 458 kts 150°
2026-04-28 19:53 -58.76923 -64.35061 28190 ft 458 kts 149°
2026-04-28 19:54 -58.82076 -64.27973 28166 ft 457 kts 149°
2026-04-28 19:54 -58.87229 -64.20830 28159 ft 456 kts 149°
2026-04-28 19:55 -58.92362 -64.13697 28161 ft 454 kts 149°
2026-04-28 19:55 -58.97482 -64.06552 28154 ft 453 kts 148°
2026-04-28 19:56 -59.02588 -63.99394 28158 ft 452 kts 149°
2026-04-28 19:56 -59.07690 -63.92242 28152 ft 451 kts 148°
2026-04-28 19:57 -59.12762 -63.85054 28156 ft 450 kts 149°
2026-04-28 19:57 -59.17839 -63.77890 28155 ft 450 kts 148°
2026-04-28 19:58 -59.22885 -63.70672 28155 ft 449 kts 149°
2026-04-28 19:58 -59.27949 -63.63523 28163 ft 448 kts 148°
2026-04-28 19:59 -59.32964 -63.56419 28155 ft 447 kts 148°
2026-04-28 19:59 -59.37993 -63.49251 28148 ft 447 kts 148°
2026-04-28 20:00 -59.42998 -63.42032 28147 ft 446 kts 148°
2026-04-28 20:00 -59.48013 -63.34854 28146 ft 445 kts 148°
2026-04-28 20:01 -59.52968 -63.27647 28154 ft 445 kts 147°
2026-04-28 20:01 -59.57960 -63.20422 28143 ft 445 kts 148°
2026-04-28 20:02 -59.62955 -63.13152 28142 ft 444 kts 147°
2026-04-28 20:02 -59.67922 -63.05882 28136 ft 444 kts 148°
2026-04-28 20:03 -59.72883 -62.98618 28153 ft 444 kts 147°
2026-04-28 20:03 -59.77846 -62.91322 28138 ft 444 kts 148°
2026-04-28 20:04 -59.82804 -62.84007 28132 ft 444 kts 147°
2026-04-28 20:04 -59.87719 -62.76686 28131 ft 443 kts 148°
2026-04-28 20:05 -59.92675 -62.69324 28128 ft 444 kts 147°
2026-04-28 20:05 -59.97603 -62.61918 28164 ft 443 kts 148°
2026-04-28 20:06 -60.02548 -62.54505 28132 ft 444 kts 147°
2026-04-28 20:06 -60.07471 -62.47065 28130 ft 444 kts 147°
2026-04-28 20:07 -60.12404 -62.39589 28125 ft 444 kts 147°
2026-04-28 20:07 -60.17325 -62.32114 28124 ft 443 kts 147°
2026-04-28 20:08 -60.22214 -62.24675 28147 ft 443 kts 147°
2026-04-28 20:08 -60.27146 -62.17189 28120 ft 443 kts 147°
2026-04-28 20:09 -60.32066 -62.09707 28115 ft 443 kts 147°
2026-04-28 20:09 -60.36972 -62.02212 28121 ft 443 kts 147°
2026-04-28 20:10 -60.41857 -61.94589 28123 ft 442 kts 147°
2026-04-28 20:10 -60.46755 -61.87033 28140 ft 442 kts 147°
2026-04-28 20:11 -60.51636 -61.79399 28122 ft 443 kts 146°
2026-04-28 20:11 -60.56493 -61.71736 28119 ft 442 kts 146°
2026-04-28 20:12 -60.61361 -61.64072 28118 ft 442 kts 146°
2026-04-28 20:12 -60.66204 -61.56451 28117 ft 442 kts 146°
2026-04-28 20:13 -60.71058 -61.48754 28135 ft 442 kts 146°
2026-04-28 20:13 -60.73495 -61.44900 28023 ft 444 kts 146°
2026-04-28 20:13 -60.75950 -61.41023 27614 ft 446 kts 146°
2026-04-28 20:13 -60.78408 -61.37144 27201 ft 443 kts 146°
2026-04-28 20:14 -60.80815 -61.33326 26781 ft 441 kts 145°
2026-04-28 20:14 -60.83226 -61.29440 26353 ft 440 kts 145°
2026-04-28 20:14 -60.85615 -61.25560 25931 ft 438 kts 145°
2026-04-28 20:14 -60.88009 -61.21701 25513 ft 436 kts 145°
2026-04-28 20:15 -60.90398 -61.17886 25108 ft 434 kts 145°
2026-04-28 20:15 -60.92771 -61.14052 24704 ft 433 kts 145°
2026-04-28 20:15 -60.95134 -61.10221 24331 ft 429 kts 144°
2026-04-28 20:15 -60.97476 -61.06453 23943 ft 424 kts 144°
2026-04-28 20:16 -60.99758 -61.02775 23546 ft 419 kts 144°
2026-04-28 20:16 -61.02028 -60.99061 23159 ft 413 kts 144°
2026-04-28 20:16 -61.04257 -60.95388 22776 ft 407 kts 144°
2026-04-28 20:16 -61.06453 -60.91776 22323 ft 401 kts 144°
2026-04-28 20:17 -61.08633 -60.88238 21865 ft 394 kts 144°
2026-04-28 20:17 -61.10779 -60.84771 21408 ft 387 kts 144°
2026-04-28 20:17 -61.12872 -60.81340 20959 ft 381 kts 144°
2026-04-28 20:17 -61.14240 -60.79074 20664 ft 376 kts 144°
2026-04-28 20:18 -61.16276 -60.75718 20230 ft 371 kts 144°
2026-04-28 20:18 -61.18286 -60.72433 19817 ft 366 kts 144°
2026-04-28 20:18 -61.20271 -60.69194 19393 ft 361 kts 144°
2026-04-28 20:18 -61.22225 -60.65986 18976 ft 356 kts 143°
2026-04-28 20:19 -61.24150 -60.62765 18567 ft 354 kts 143°
2026-04-28 20:19 -61.26060 -60.59547 18171 ft 353 kts 143°
2026-04-28 20:19 -61.27973 -60.56358 17770 ft 351 kts 143°
2026-04-28 20:19 -61.29881 -60.53192 17389 ft 349 kts 143°
2026-04-28 20:20 -61.31769 -60.50039 16926 ft 347 kts 143°
2026-04-28 20:20 -61.33619 -60.46907 16482 ft 346 kts 143°
2026-04-28 20:20 -61.35475 -60.43748 16043 ft 343 kts 143°
2026-04-28 20:20 -61.37353 -60.40595 15604 ft 341 kts 143°
2026-04-28 20:21 -61.39199 -60.37496 15171 ft 339 kts 143°
2026-04-28 20:21 -61.41024 -60.34403 14759 ft 337 kts 143°
2026-04-28 20:21 -61.42804 -60.31372 14477 ft 333 kts 143°
2026-04-28 20:21 -61.44603 -60.28305 14236 ft 335 kts 143°
2026-04-28 20:22 -61.46412 -60.25222 14035 ft 336 kts 142°
2026-04-28 20:22 -61.48235 -60.22117 13830 ft 337 kts 142°
2026-04-28 20:22 -61.50055 -60.19015 13631 ft 336 kts 142°
2026-04-28 20:22 -61.51863 -60.15937 13428 ft 334 kts 142°
2026-04-28 20:23 -61.53659 -60.12875 13235 ft 333 kts 142°
2026-04-28 20:23 -61.55454 -60.09817 13034 ft 331 kts 142°
2026-04-28 20:23 -61.57234 -60.06782 12820 ft 330 kts 142°
2026-04-28 20:23 -61.59008 -60.03760 12593 ft 328 kts 142°
2026-04-28 20:24 -61.60780 -60.00740 12370 ft 329 kts 142°
2026-04-28 20:24 -61.62563 -59.97704 12150 ft 330 kts 142°
2026-04-28 20:24 -61.64342 -59.94676 11934 ft 328 kts 142°
2026-04-28 20:24 -61.66088 -59.91704 11733 ft 325 kts 142°
2026-04-28 20:25 -61.67857 -59.88670 11506 ft 323 kts 142°
2026-04-28 20:25 -61.69584 -59.85685 11278 ft 318 kts 142°
2026-04-28 20:25 -61.71272 -59.82757 11076 ft 311 kts 142°
2026-04-28 20:25 -61.72936 -59.79867 10858 ft 310 kts 141°
2026-04-28 20:26 -61.74572 -59.77019 10653 ft 310 kts 141°
2026-04-28 20:26 -61.76249 -59.74098 10433 ft 312 kts 141°
2026-04-28 20:26 -61.77931 -59.71169 10227 ft 315 kts 141°
2026-04-28 20:26 -61.79629 -59.68209 10024 ft 317 kts 141°
2026-04-28 20:27 -61.81336 -59.65237 9802 ft 319 kts 141°
2026-04-28 20:27 -61.83058 -59.62237 9494 ft 320 kts 141°
2026-04-28 20:27 -61.84766 -59.59260 9176 ft 315 kts 141°
2026-04-28 20:27 -61.86443 -59.56338 8868 ft 311 kts 141°
2026-04-28 20:28 -61.88102 -59.53422 8519 ft 309 kts 141°
2026-04-28 20:28 -61.89742 -59.50497 8196 ft 307 kts 141°
2026-04-28 20:28 -61.91378 -59.47603 7897 ft 305 kts 141°
2026-04-28 20:28 -61.92996 -59.44764 7599 ft 300 kts 141°
2026-04-28 20:29 -61.94600 -59.41941 7297 ft 297 kts 141°
2026-04-28 20:29 -61.96162 -59.39154 6984 ft 295 kts 141°
2026-04-28 20:29 -61.97724 -59.36358 6667 ft 292 kts 140°
2026-04-28 20:29 -61.99266 -59.33590 6353 ft 287 kts 140°
2026-04-28 20:30 -62.00774 -59.30901 6030 ft 280 kts 141°
2026-04-28 20:30 -62.02255 -59.28265 5736 ft 274 kts 140°
2026-04-28 20:30 -62.03697 -59.25694 5451 ft 268 kts 141°
2026-04-28 20:30 -62.05112 -59.23166 5137 ft 263 kts 140°
2026-04-28 20:31 -62.06498 -59.20681 4845 ft 258 kts 140°
2026-04-28 20:31 -62.07873 -59.18221 4575 ft 260 kts 140°
2026-04-28 20:31 -62.09266 -59.15736 4312 ft 263 kts 140°
2026-04-28 20:31 -62.10666 -59.13237 4043 ft 262 kts 140°
2026-04-28 20:32 -62.12062 -59.10751 3781 ft 261 kts 140°
2026-04-28 20:32 -62.13453 -59.08269 3508 ft 260 kts 140°
2026-04-28 20:32 -62.14829 -59.05815 3237 ft 255 kts 140°
2026-04-28 20:32 -62.16174 -59.03412 2999 ft 249 kts 139°
2026-04-28 20:33 -62.17484 -59.01058 2758 ft 243 kts 139°
2026-04-28 20:33 -62.18746 -58.98771 2572 ft 236 kts 136°
2026-04-28 20:33 -62.19709 -58.96102 2594 ft 219 kts 121°
2026-04-28 20:33 -62.20477 -58.93361 2595 ft 205 kts 118°
2026-04-28 20:34 -62.21168 -58.90714 2601 ft 203 kts 117°
2026-04-28 20:34 -62.21825 -58.88133 2688 ft 191 kts 116°
2026-04-28 20:34 -62.22419 -58.85781 3033 ft 181 kts 116°
2026-04-28 20:34 -62.23032 -58.83311 3302 ft 194 kts 116°
2026-04-28 20:35 -62.23684 -58.80672 3482 ft 207 kts 117°
2026-04-28 20:35 -62.24365 -58.77941 3522 ft 209 kts 117°
2026-04-28 20:35 -62.25059 -58.75185 3534 ft 211 kts 117°
2026-04-28 20:35 -62.25764 -58.72403 3530 ft 212 kts 117°
2026-04-28 20:36 -62.26479 -58.69629 3524 ft 212 kts 117°
2026-04-28 20:36 -62.27195 -58.66862 3525 ft 212 kts 117°
2026-04-28 20:36 -62.27909 -58.64104 3510 ft 212 kts 118°
2026-04-28 20:36 -62.28630 -58.61339 3517 ft 212 kts 118°
2026-04-28 20:37 -62.29342 -58.58574 3515 ft 211 kts 117°
2026-04-28 20:37 -62.30182 -58.55987 3501 ft 212 kts 140°
2026-04-28 20:37 -62.31542 -58.54715 3206 ft 219 kts 176°
2026-04-28 20:37 -62.33019 -58.55328 2926 ft 218 kts 211°
2026-04-28 20:38 -62.34060 -58.57599 2672 ft 213 kts 247°
2026-04-28 20:38 -62.34257 -58.60585 2582 ft 197 kts 284°
2026-04-28 20:38 -62.33584 -58.62972 2517 ft 185 kts 324°
2026-04-28 20:38 -62.32405 -58.63741 2439 ft 178 kts
2026-04-28 20:39 -62.31215 -58.63515 2396 ft 170 kts
2026-04-28 20:39 -62.30081 -58.63562 2361 ft 155 kts 347°
2026-04-28 20:39 -62.29179 -58.64488 2306 ft 140 kts 329°
2026-04-28 20:39 -62.28336 -58.65649 2353 ft 146 kts 326°
2026-04-28 20:40 -62.27584 -58.67161 2396 ft 150 kts 313°
2026-04-28 20:40 -62.26909 -58.68926 2414 ft 155 kts 309°
2026-04-28 20:40 -62.26256 -58.70804 2408 ft 159 kts 307°
2026-04-28 20:40 -62.25614 -58.72798 2290 ft 165 kts 303°
2026-04-28 20:41 -62.25021 -58.74940 2158 ft 169 kts 301°
2026-04-28 20:41 -62.24457 -58.77110 1979 ft 161 kts 300°
2026-04-28 20:41 -62.23949 -58.79201 1788 ft 155 kts 299°
2026-04-28 20:41 -62.23492 -58.81175 1644 ft 145 kts 298°
2026-04-28 20:42 -62.23056 -58.83113 1463 ft 138 kts 298°
2026-04-28 20:42 -62.22662 -58.84898 1288 ft 131 kts 298°
2026-04-28 20:42 -62.22280 -58.86650 1105 ft 129 kts 298°
2026-04-28 20:42 -62.21874 -58.88350 949 ft 126 kts 304°
2026-04-28 20:43 -62.21392 -58.89906 853 ft 124 kts 310°
2026-04-28 20:43 -62.20871 -58.91416 750 ft 128 kts 306°
2026-04-28 20:43 -62.20428 -58.93080 654 ft 130 kts 300°
2026-04-28 20:43 -62.19997 -58.94826 476 ft 134 kts 301°
2026-04-28 20:44 -62.19575 -58.96607 254 ft 133 kts 299°
2026-04-28 20:44 -62.19181 -58.98356 139 ft 120 kts 301°
2026-04-28 20:44 -62.18869 -58.99598 148 ft 66 kts 297°
2026-04-28 20:44 -62.18674 -59.00273 12 ft 61 kts 306°
2026-04-28 20:45 -62.18614 -59.00431 3 ft 0 kts 309°